Perry, FL

12:51 PM EST on February 13, 2016 (GMT -0500)
Perry

Weather History for K40J - December, 2013

Change the Weather History Date:

Monday, December 9, 2013

  Actual Average (KCTY) Record (KCTY)
Temperature  
Mean Temperature 72 °F 56 °F  
Max Temperature 81 °F 68 °F 83 °F (2013)
Min Temperature 62 °F 44 °F 28 °F (2006)
Degree Days  
Heating Degree Days 0 10  
Month to date heating degree days 78  
Since 1 July heating degree days 246  
Cooling Degree Days 6 1  
Month to date cooling degree days 9  
Year to date cooling degree days 2611  
Growing Degree Days 22 (Base 50)    
Moisture  
Dew Point 66 °F    
Average Humidity 85    
Maximum Humidity 100    
Minimum Humidity 58    
Precipitation  
Precipitation 0.02 in 0.09 in 0.06 in (2001)
Month to date precipitation 0.84  
Year to date precipitation 46.68  
Sea Level Pressure  
Sea Level Pressure 30.13 in    
Wind  
Wind Speed 5 mph (SSE)    
Max Wind Speed 16 mph    
Max Gust Speed 23 mph    
Visibility 7 miles    
Events Fog , Rain    
T = Trace of Precipitation, MM = Missing Value Source: NWS Daily Summary

Daily Weather History Graph

Daily Weather History Graph

Search for Another Location

Airport or City:

Trip Planner

Search our weather history database for the weather conditions in past years. The results will help you decide how hot, cold, wet, or windy it might be!

Date:

Astronomy

Dec. 09, 2013 Rise Set
Actual Time 7:18 AM EST 5:34 PM EST
Civil Twilight 6:52 AM EST 6:00 PM EST
Nautical Twilight 6:22 AM EST 6:30 PM EST
Astronomical Twilight 5:53 AM EST 6:59 PM EST
Moon 12:36 PM EST (12/9) 12:00 AM EST (12/9)
Length of Visible Light 11h 08m
Length of Day
10h 15m
Waxing Crescent, 51% of the Moon is Illuminated
Dec 9
Waxing Crescent
Dec 17
Full
Dec 25
Last Quarter
Jan 1
New
Jan 7
First Quarter

Hourly Weather History & Observations

Time (EST) Temp. Heat Index Dew Point Humidity Pressure Visibility Wind Dir Wind Speed Gust Speed Precip Events Conditions
12:15 AM 68.0 °F - 64.4 °F 88% 30.16 in 7.0 mi East 3.5 mph - N/A   Overcast
12:35 AM 68.0 °F - 64.4 °F 88% 30.16 in 7.0 mi Calm Calm - N/A Rain Light Rain
12:53 AM 69.1 °F - 64.9 °F 87% 30.15 in - Calm Calm - N/A   Unknown
12:55 AM 68.0 °F - 64.4 °F 88% 30.16 in 7.0 mi Calm Calm - N/A   Overcast
1:15 AM 68.0 °F - 64.4 °F 88% 30.16 in 7.0 mi Calm Calm - N/A   Overcast
1:35 AM 68.0 °F - 64.4 °F 88% 30.16 in 7.0 mi Calm Calm - N/A   Overcast
1:53 AM 68.0 °F - 64.9 °F 90% 30.14 in - East 4.6 mph - N/A   Unknown
1:55 AM 68.0 °F - 64.4 °F 88% 30.16 in 7.0 mi ESE 4.6 mph - N/A   Mostly Cloudy
2:15 AM 66.2 °F - 64.4 °F 94% 30.16 in 7.0 mi Calm Calm - N/A   Mostly Cloudy
2:35 AM 66.2 °F - 64.4 °F 94% 30.16 in 7.0 mi Calm Calm - N/A   Mostly Cloudy
2:53 AM 66.9 °F - 64.0 °F 90% 30.14 in - ESE 4.6 mph - N/A   Unknown
2:55 AM 66.2 °F - 64.4 °F 94% 30.15 in 7.0 mi ESE 4.6 mph - N/A   Mostly Cloudy
3:15 AM 66.2 °F - 64.4 °F 94% 30.15 in 5.0 mi ESE 4.6 mph - N/A   Overcast
3:35 AM 66.2 °F - 64.4 °F 94% 30.15 in 7.0 mi ESE 5.8 mph - N/A   Overcast
3:53 AM 66.9 °F - 64.0 °F 90% 30.14 in - ESE 4.6 mph - N/A   Unknown
3:55 AM 66.2 °F - 64.4 °F 94% 30.15 in 7.0 mi SE 3.5 mph - N/A   Overcast
4:15 AM 66.2 °F - 64.4 °F 94% 30.15 in 7.0 mi Calm Calm - N/A   Overcast
4:35 AM 66.2 °F - 64.4 °F 94% 30.15 in 7.0 mi East 3.5 mph - N/A   Overcast
4:53 AM 66.9 °F - 64.0 °F 90% 30.13 in - Calm Calm - N/A   Unknown
4:55 AM 66.2 °F - 64.4 °F 94% 30.15 in 7.0 mi Calm Calm - N/A   Overcast
5:15 AM 66.2 °F - 64.4 °F 94% 30.15 in 5.0 mi Calm Calm - N/A   Overcast
5:35 AM 64.4 °F - 64.4 °F 100% 30.14 in 5.0 mi East 3.5 mph - N/A   Mostly Cloudy
5:53 AM 66.0 °F - 63.0 °F 90% 30.13 in - ESE 5.8 mph - N/A   Unknown
5:55 AM 64.4 °F - 62.6 °F 94% 30.14 in 5.0 mi ESE 4.6 mph - N/A   Scattered Clouds
6:15 AM 64.4 °F - 64.4 °F 100% 30.15 in 5.0 mi ESE 4.6 mph - N/A   Overcast
6:35 AM 64.4 °F - 62.6 °F 94% 30.15 in 5.0 mi SE 6.9 mph - N/A   Mostly Cloudy
6:53 AM 64.9 °F - 62.1 °F 90% 30.14 in - ESE 5.8 mph - N/A   Unknown
6:55 AM 64.4 °F - 62.6 °F 94% 30.16 in 5.0 mi SE 4.6 mph - N/A   Scattered Clouds
7:15 AM 62.6 °F - 62.6 °F 100% 30.16 in 5.0 mi ESE 4.6 mph - N/A   Clear
7:35 AM 62.6 °F - 62.6 °F 100% 30.16 in 3.0 mi SE 4.6 mph - N/A   Mist
7:53 AM 64.9 °F - 63.0 °F 93% 30.14 in - SE 6.9 mph - N/A   Unknown
7:55 AM 64.4 °F - 62.6 °F 94% 30.15 in 4.0 mi SE 5.8 mph - N/A   Clear
8:15 AM 64.4 °F - 64.4 °F 100% 30.16 in 5.0 mi SE 5.8 mph - N/A   Clear
8:35 AM 66.2 °F - 64.4 °F 94% 30.16 in 7.0 mi SSE 6.9 mph - N/A   Clear
8:53 AM 70.0 °F - 64.9 °F 84% 30.14 in - SSE 8.1 mph - N/A   Unknown
8:55 AM 68.0 °F - 66.2 °F 94% 30.16 in 10.0 mi SSE 6.9 mph - N/A   Clear
9:15 AM 69.8 °F - 66.2 °F 88% 30.17 in 10.0 mi SSE 8.1 mph - N/A   Clear
9:35 AM 71.6 °F - 66.2 °F 83% 30.18 in 10.0 mi SSE 8.1 mph - N/A   Clear
9:53 AM 75.0 °F - 66.0 °F 73% 30.16 in - SSE 11.5 mph - 0.01 in   Unknown
9:55 AM 73.4 °F - 66.2 °F 78% 30.18 in 10.0 mi South 10.4 mph - N/A   Clear
10:15 AM 75.2 °F - 66.2 °F 73% 30.18 in 10.0 mi South 10.4 mph - N/A   Clear
10:35 AM 77.0 °F - 66.2 °F 69% 30.18 in 10.0 mi South 9.2 mph 16.1 mph N/A   Clear
10:53 AM 79.0 °F - 66.0 °F 64% 30.16 in - South 9.2 mph - 0.01 in   Unknown
10:55 AM 77.0 °F - 66.2 °F 69% 30.17 in 10.0 mi South 9.2 mph - N/A   Clear
11:15 AM 78.8 °F - 66.2 °F 65% 30.16 in 10.0 mi South 9.2 mph - N/A   Scattered Clouds
11:35 AM 78.8 °F - 64.4 °F 61% 30.16 in 10.0 mi South 16.1 mph 20.7 mph N/A   Scattered Clouds
11:53 AM 80.1 °F 81.9 °F 64.9 °F 60% 30.14 in - South 15.0 mph 20.7 mph N/A   Unknown
11:55 AM 78.8 °F - 64.4 °F 61% 30.16 in 10.0 mi SSW 13.8 mph 20.7 mph N/A   Scattered Clouds
12:15 PM 78.8 °F - 64.4 °F 61% 30.15 in 10.0 mi SSW 16.1 mph 19.6 mph N/A   Scattered Clouds
12:35 PM 78.8 °F - 64.4 °F 61% 30.14 in 10.0 mi SSW 15.0 mph 19.6 mph N/A   Scattered Clouds
12:53 PM 81.0 °F 82.7 °F 64.9 °F 58% 30.12 in - SSW 13.8 mph 23.0 mph N/A   Unknown
12:55 PM 78.8 °F - 64.4 °F 61% 30.14 in 10.0 mi SSW 12.7 mph 18.4 mph N/A   Mostly Cloudy
1:15 PM 80.6 °F 82.3 °F 64.4 °F 58% 30.13 in 10.0 mi SSW 15.0 mph 21.9 mph N/A   Mostly Cloudy
1:35 PM 78.8 °F - 64.4 °F 61% 30.12 in 10.0 mi SW 12.7 mph 19.6 mph N/A   Mostly Cloudy
1:53 PM 80.1 °F 82.1 °F 66.0 °F 62% 30.10 in - South 13.8 mph 21.9 mph N/A   Unknown
1:55 PM 78.8 °F - 64.4 °F 61% 30.12 in 10.0 mi South 13.8 mph 18.4 mph N/A   Mostly Cloudy
2:15 PM 78.8 °F - 64.4 °F 61% 30.11 in 10.0 mi SSW 13.8 mph 21.9 mph N/A   Mostly Cloudy
2:35 PM 77.0 °F - 66.2 °F 69% 30.10 in 10.0 mi South 11.5 mph 17.3 mph N/A   Mostly Cloudy
2:53 PM 79.0 °F - 66.0 °F 64% 30.09 in - SSW 15.0 mph 23.0 mph N/A   Unknown
2:55 PM 77.0 °F - 66.2 °F 69% 30.11 in 10.0 mi SSW 13.8 mph 19.6 mph N/A   Mostly Cloudy
3:15 PM 77.0 °F - 66.2 °F 69% 30.10 in 10.0 mi SSW 12.7 mph 17.3 mph N/A   Mostly Cloudy
3:35 PM 77.0 °F - 66.2 °F 69% 30.10 in 10.0 mi SSW 10.4 mph 17.3 mph N/A   Scattered Clouds
3:53 PM 77.0 °F - 66.9 °F 71% 30.09 in - South 10.4 mph 18.4 mph N/A   Unknown
3:55 PM 77.0 °F - 68.0 °F 74% 30.10 in 10.0 mi South 10.4 mph - N/A   Mostly Cloudy
4:15 PM 75.2 °F - 68.0 °F 78% 30.11 in 10.0 mi South 6.9 mph - N/A   Mostly Cloudy
4:35 PM 75.2 °F - 68.0 °F 78% 30.11 in 10.0 mi South 10.4 mph - N/A   Overcast
4:53 PM 75.0 °F - 68.0 °F 79% 30.10 in - South 8.1 mph - N/A   Unknown
4:55 PM 73.4 °F - 68.0 °F 83% 30.11 in 10.0 mi South 8.1 mph - N/A   Mostly Cloudy
5:15 PM 73.4 °F - 68.0 °F 83% 30.11 in 10.0 mi South 4.6 mph - N/A   Overcast
5:35 PM 71.6 °F - 68.0 °F 88% 30.11 in 10.0 mi SSW 5.8 mph - N/A   Mostly Cloudy
5:53 PM 72.0 °F - 66.9 °F 84% 30.10 in - SSW 5.8 mph - N/A   Unknown
5:55 PM 71.6 °F - 68.0 °F 88% 30.11 in 10.0 mi SSW 4.6 mph - N/A   Scattered Clouds
6:15 PM 71.6 °F - 68.0 °F 88% 30.12 in 10.0 mi SSW 4.6 mph - N/A   Clear
6:35 PM 69.8 °F - 68.0 °F 94% 30.12 in 10.0 mi South 4.6 mph - N/A   Clear
6:53 PM 71.1 °F - 66.9 °F 87% 30.11 in - South 4.6 mph - N/A   Unknown
6:55 PM 69.8 °F - 68.0 °F 94% 30.12 in 7.0 mi South 4.6 mph - N/A   Clear
7:15 PM 69.8 °F - 68.0 °F 94% 30.12 in 7.0 mi South 4.6 mph - N/A   Clear
7:35 PM 69.8 °F - 68.0 °F 94% 30.12 in 7.0 mi South 4.6 mph - N/A   Scattered Clouds
7:53 PM 70.0 °F - 66.9 °F 90% 30.11 in - South 4.6 mph - N/A   Unknown
7:55 PM 69.8 °F - 68.0 °F 94% 30.12 in 7.0 mi South 4.6 mph - N/A   Scattered Clouds
8:15 PM 69.8 °F - 68.0 °F 94% 30.12 in 7.0 mi South 3.5 mph - N/A   Scattered Clouds
8:35 PM 68.0 °F - 68.0 °F 100% 30.12 in 5.0 mi South 3.5 mph - N/A   Clear
8:53 PM 70.0 °F - 66.9 °F 90% 30.11 in - South 5.8 mph - N/A   Unknown
8:55 PM 68.0 °F - 68.0 °F 100% 30.12 in 5.0 mi South 4.6 mph - N/A   Clear
9:15 PM 68.0 °F - 68.0 °F 100% 30.12 in 5.0 mi South 4.6 mph - N/A   Clear
9:35 PM 68.0 °F - 68.0 °F 100% 30.12 in 5.0 mi South 3.5 mph - N/A   Clear
9:53 PM 70.0 °F - 66.9 °F 90% 30.10 in - South 4.6 mph - N/A   Unknown
9:55 PM 68.0 °F - 68.0 °F 100% 30.12 in 5.0 mi South 3.5 mph - N/A   Scattered Clouds
10:15 PM 69.8 °F - 68.0 °F 94% 30.11 in 2.0 mi South 5.8 mph - N/A   Overcast
10:35 PM 69.8 °F - 68.0 °F 94% 30.11 in 0.5 mi South 4.6 mph - N/A Fog Fog
10:53 PM 70.0 °F - 68.0 °F 93% 30.09 in - South 4.6 mph - N/A   Unknown
10:55 PM 69.8 °F - 68.0 °F 94% 30.10 in 1.2 mi South 4.6 mph - N/A   Overcast
11:15 PM 69.8 °F - 68.0 °F 94% 30.10 in 1.2 mi SSW 4.6 mph - N/A   Overcast
11:35 PM 69.8 °F - 68.0 °F 94% 30.10 in 2.0 mi South 5.8 mph - N/A   Overcast
11:53 PM 71.1 °F - 69.1 °F 93% 30.08 in - South 4.6 mph - N/A   Unknown
11:55 PM 69.8 °F - 68.0 °F 94% 30.10 in 2.5 mi South 3.5 mph - N/A   Overcast